Actual water levels and discharges of Morava river

Lanžhot

Date and time (UTC) H (cm) Q (m3/s)
28. 3. 2020 20:10 84 46
28. 3. 2020 20:00 84 46
28. 3. 2020 19:00 83 45
28. 3. 2020 18:00 82 45
28. 3. 2020 17:00 83 45
28. 3. 2020 16:00 83 45
28. 3. 2020 15:00 83 45
28. 3. 2020 14:00 83 45
28. 3. 2020 13:00 84 46
28. 3. 2020 12:00 84 46
28. 3. 2020 11:00 84 46
28. 3. 2020 10:00 83 45
28. 3. 2020 09:00 84 46
28. 3. 2020 08:00 83 45

H - water level, Q - discharge

Strážnice

Date and time (UTC) H (cm) Q (m3/s)
28. 3. 2020 20:20 155 37
28. 3. 2020 20:00 155 37
28. 3. 2020 19:00 156 37
28. 3. 2020 18:00 156 37
28. 3. 2020 17:00 156 37
28. 3. 2020 16:00 157 38
28. 3. 2020 15:00 157 38
28. 3. 2020 14:00 157 38
28. 3. 2020 13:00 156 37
28. 3. 2020 12:00 156 37
28. 3. 2020 11:00 156 37
28. 3. 2020 10:00 156 37
28. 3. 2020 09:00 157 38
28. 3. 2020 08:00 157 38

H - water level, Q - discharge
more information

Spytihněv

Date and time (UTC) H (cm) Q (m3/s)
28. 3. 2020 20:30 132 36
28. 3. 2020 20:00 132 36
28. 3. 2020 19:00 131 35
28. 3. 2020 18:00 130 35
28. 3. 2020 17:00 132 36
28. 3. 2020 16:00 132 36
28. 3. 2020 15:00 130 35
28. 3. 2020 14:00 132 36
28. 3. 2020 13:00 133 36
28. 3. 2020 12:00 132 36
28. 3. 2020 11:00 134 37
28. 3. 2020 10:00 133 36
28. 3. 2020 09:00 132 36
28. 3. 2020 08:00 132 36

H - water level, Q - discharge

Kroměříž

Date and time (UTC) H (cm) Q (m3/s)
28. 3. 2020 20:20 166 37
28. 3. 2020 20:00 167 38
28. 3. 2020 19:00 167 38
28. 3. 2020 18:00 167 38
28. 3. 2020 17:00 167 38
28. 3. 2020 16:00 167 38
28. 3. 2020 15:00 167 38
28. 3. 2020 14:00 167 38
28. 3. 2020 13:00 167 38
28. 3. 2020 12:00 167 38
28. 3. 2020 11:00 167 38
28. 3. 2020 10:00 167 38
28. 3. 2020 09:00 167 38
28. 3. 2020 08:00 167 38

H - water level, Q - discharge
more information

Olomouc-Nové Sady tok

Date and time (UTC) H (cm) Q (m3/s)
28. 3. 2020 20:30 137 26
28. 3. 2020 20:00 137 26
28. 3. 2020 19:00 137 26
28. 3. 2020 18:00 137 26
28. 3. 2020 17:00 137 26
28. 3. 2020 16:00 138 27
28. 3. 2020 15:00 140 27
28. 3. 2020 14:00 140 27
28. 3. 2020 13:00 140 27
28. 3. 2020 12:00 140 27
28. 3. 2020 11:00 140 27
28. 3. 2020 10:00 141 28
28. 3. 2020 09:00 141 28
28. 3. 2020 08:00 141 28

H - water level, Q - discharge

Moravičany

Date and time (UTC) H (cm) Q (m3/s)
28. 3. 2020 20:20 97 13
28. 3. 2020 20:00 97 13
28. 3. 2020 19:00 97 13
28. 3. 2020 18:00 97 13
28. 3. 2020 17:00 97 13
28. 3. 2020 16:00 97 13
28. 3. 2020 15:00 97 13
28. 3. 2020 14:00 97 13
28. 3. 2020 13:00 97 13
28. 3. 2020 12:00 97 13
28. 3. 2020 11:00 97 13
28. 3. 2020 10:00 96 12
28. 3. 2020 09:00 97 13
28. 3. 2020 08:00 96 12

H - water level, Q - discharge
Source data
Labe Basin Vltava Basin ČHMÚ